Orbital Elements at Epoch 2459200.5 (2020-Dec-17.0) TDB
Reference: JPL 25 (heliocentric ecliptic J2000)
Element | Value | Uncertainty (1-sigma) | Units |
e | .05351933991583938 | 3.9082e-08 | |
a | 1.905738004793219 | 6.378e-09 | au |
q | 1.803744164724157 | 7.7184e-08 | au |
i | 22.53348044428418 | 4.6021e-06 | deg |
node | 115.1604629340218 | 9.0894e-06 | deg |
peri | 50.83857386081321 | 4.1068e-05 | deg |
M | 302.4502641975251 | 3.9131e-05 | deg |
tp | 2459354.115151199741 (2021-May-19.61515120) | 0.00010442 | TDB |
period | 960.9332460137631 2.63 | 4.824e-06 1.321e-08 | d yr |
n | .3746358048213932 | 1.8807e-09 | deg/d |
Q | 2.007731844862281 | 6.7194e-09 | au |
|
| | Orbit Determination Parameters
Additional Information
|